Regional Weather Roundup
Issued by NWS Columbia, SC

Home | Current Version | Previous Version | Text Only | Print | Product List | Glossary On
Versions: 1 2 3 4 5 6 7 8 9 10 11 12 13 14 15 16 17 18 19 20 21 22 23 24 25 26 27 28 29 30 31 32 33 34 35 36 37 38 39 40 41 42 43 44 45 46 47 48 49 50
000
ASUS42 KCAE 130910
RWRCAE
REGIONAL WEATHER ROUNDUP
NATIONAL WEATHER SERVICE COLUMBIA SC
400 AM EST SAT FEB 13 2016

NOTE: "FAIR" INDICATES FEW OR NO CLOUDS BELOW 12,000 FEET WITH NO
SIGNIFICANT WEATHER AND/OR OBSTRUCTIONS TO VISIBILITY.

NOT ALL STATIONS ARE QUALITY CONTROLLED BY THE NATIONAL
WEATHER SERVICE. USE DATA WITH CAUTION...ESPECIALLY
DEWPOINT OBSERVATIONS.

SCZ001>056-GAZ040-063>065-077-131000-
...UPSTATE SOUTH CAROLINA...

CITY           SKY/WX    TMP DP  RH WIND       PRES   REMARKS
ANDERSON       CLEAR     34  22  61 W8        30.11S WCI  27
LIBERTY        SUNNY     31  19  62 W12       30.08F WCI  22
SPARTANBURG    CLEAR     32  18  55 N15G21    30.10S WCI  22
CLEMSON        CLEAR     36  15  42 W12       30.12R WCI  28
GREENVILLE     CLEAR     30  20  66 N3        30.10R
GREENWOOD      CLEAR     36  25  64 W6        30.12R WCI  31
GREER          CLEAR     31  22  69 N9        30.09R WCI  23
ROCK HILL      CLEAR     32  21  64 NW3       30.09R
CHESTER        SUNNY     32  19  59 NW8       30.10  WCI  25
LAURENS        SUNNY     32  25  74 N3        30.10S


...CENTRAL SOUTH CAROLINA...

CITY           SKY/WX    TMP DP  RH WIND       PRES   REMARKS
COLUMBIA APT   CLEAR     38  26  62 NW7       30.11R WCI  33
COLUMBIA OWENS CLEAR     36  28  73 NW5       30.12R WCI  32
MCENTIRE ANGB  PTCLDY    31  25  78 NW9       30.11R WCI  23
ORANGEBURG     CLEAR     33  30  88 CALM      30.12R
SUMTER SHAW    CLEAR     35  26  69 NW6       30.08R WCI  30
NEWBERRY       SUNNY     34  27  75 NW3       30.14R
AIKEN          FAIR      36  28  75 W6        30.14R WCI  31
BARNWELL       FAIR      41  32  70 CALM      30.13R
MANNING        FAIR      28  28 100 CALM      30.12R
CAMDEN         FAIR      28  27  93 CALM      30.11R
LANCASTER      SUNNY     32  25  74 W3        30.10R
WINNSBORO      SUNNY     32  27  80 NW6       30.09R WCI  26


...EASTERN AND COASTAL SOUTH CAROLINA...

CITY           SKY/WX    TMP DP  RH WIND       PRES   REMARKS
MYRTLE BEACH   CLEAR     30  23  74 W3        30.11R
N MYRTLE BCH   CLEAR     30  27  88 CALM      30.08R
CONWAY         FAIR      28  27  93 CALM      30.09S
MARION         FAIR      30  28  93 CALM      30.10R
HARTSVILLE     FAIR      32  28  86 CALM      30.09R
FLORENCE       CLEAR     26  24  92 NW6       30.10R WCI  19
DARLINGTON     CLEAR     30  25  80 NW6       30.10R WCI  24
CHARLESTON APT PTCLDY    35  31  85 NW8       30.11R WCI  29
MOUNT PLEASANT FAIR      37  36  93 N5        30.10R WCI  34
WALTERBORO     SUNNY     37  36  93 NW3       30.13R
BEAUFORT       CLEAR     44  33  65 NW10      30.12R


...EASTERN GEORGIA...

CITY           SKY/WX    TMP DP  RH WIND       PRES   REMARKS
AUGUSTA BUSH F PTCLDY    39  28  64 NW6       30.14R WCI  35
AUGUSTA DANIEL PTCLDY    41  25  53 W9        30.13R
THOMSON        CLEAR     39  32  75 W7        30.19R WCI  34
WASHINGTON     FAIR      41  30  65 NW10      30.14S
CLAXTON        FAIR      46  36  68 W9        30.15S
SYLVANIA       SUNNY     40  36  86 NW6       30.14S
STATESBORO     PTCLDY    45  32  60 NW9       30.15R
SAVANNAH       PTCLDY    45  35  68 NW10      30.14R


...SOUTHERN NORTH CAROLINA...

CITY           SKY/WX    TMP DP  RH WIND       PRES   REMARKS
CHARLOTTE      PTCLDY    33  14  45 NW12      30.08R WCI  24
MONROE         CLEAR     32  19  58 NW3       30.07R
WADESBORO      SUNNY     31  20  62 W6        30.09R WCI  26
ROCKINGHAM     SUNNY     29  25  84 NW3       30.08R
RUTHERFORDTON  CLEAR     30  17  57 CALM      30.09R
ASHEVILLE      LGT SNOW  24  18  77 N23G32    30.06R WCI   9

$$



USA.gov is the U.S. government's official web portal to all federal, state and local government web resources and services.